{"data":{"norad_id":61050,"intl_designator":"2024-164A","name":"STARLINK-11286 [DTC]","alt_names":[],"object_type":"PAYLOAD","status":"ACTIVE","operator":null,"country":"US","launch_date":"2024-09-13","launch_site_code":"AFWTR","launch_vehicle":null,"mission":null,"orbit_class":"UNKNOWN","rcs_meters":null,"size_class":null,"mass_kg":null,"dimensions":null,"purposes":["comms"],"wikipedia_slug":null,"has_3d_model":false,"image_url":null,"decayed_at":null,"tle_current":{"epoch":"2026-05-25T02:59:31.229664Z","epoch_age_seconds":67563,"freshness":"FRESH","line1":"1 61050U 24164A   26145.12466701  .00000443  00000+0  85137-5 0  9993","line2":"2 61050  53.1599 294.4878 0001088  83.9695 276.1446 15.69712084 97420","mean_motion":15.69712084,"eccentricity":0.0001088,"inclination_deg":53.1599,"raan_deg":294.4878,"arg_perigee_deg":83.9695,"mean_anomaly_deg":276.1446,"bstar":8.5137e-6,"rev_number":9742,"period_min":91.736568424098,"perigee_km":358.98770788889,"apogee_km":360.4538657433,"semimajor_km":6737.8577868161,"source":"CELESTRAK","updated_at":"2026-05-25T13:38:19.352634Z"}}}